This demonstration page uses our WeatherBlox Daily Observations layout. Learn more.

Left ArrowRight Arrow

38.88101, -77.10428

Hourly Observations for July 3, 2016

Temp ( °F °C ) Dew Point ( °F °C ) Humidity (%) Winds ( mph kmh ) Pressure ( in mb ) Visibility ( mi km ) Precip ( " mm )
12:52 am 00:52 Cloudy 74 23.3 56 13.3 54 54 E 5 7 30.11 1020 10 16.0934 0 0
1:52 am 01:52 Cloudy 74 23.3 54 12.2 50 50 ESE 3 6 30.1 1019 10 16.0934 0 0
2:52 am 02:52 Cloudy 74 23.3 55 12.8 52 52 Calm 30.11 1020 10 16.0934 0 0
3:52 am 03:52 Cloudy 73 22.8 55 12.8 53 53 Calm 30.1 1019 10 16.0934 0 0
4:52 am 04:52 Cloudy with Light Rain 71 21.7 59 15 66 66 SE 6 9 30.1 1019 10 16.0934 0 0.0254
5:52 am 05:52 Cloudy with Light Rain 66 18.9 60 15.6 81 81 S 8 13 30.12 1020 10 16.0934 0.03 0.762
6:52 am 06:52 Cloudy with Light Rain 65 18.3 59 15 81 81 S 10 17 30.14 1021 10 16.0934 0.02 0.508
7:52 am 07:52 Cloudy with Light Rain 65 18.3 59 15 81 81 S 5 7 30.13 1020 10 16.0934 0.01 0.254
8:52 am 08:52 Cloudy 66 18.9 60 15.6 81 81 SSW 5 7 30.14 1021 10 16.0934 0 0.0254
9:39 am 09:39 Cloudy 66 18.9 59 15 78 78 SSE 6 9 30.15 1021 10 16.0934 0 0
9:52 am 09:52 Cloudy 66 18.9 58 14.4 75 75 SSE 5 7 30.16 1021 10 16.0934 0 0
10:52 am 10:52 Cloudy 68 20 60 15.6 76 76 SSE 3 6 30.16 1021 10 16.0934 0 0
11:52 am 11:52 Cloudy 70 21.1 59 15 68 68 Calm 30.15 1021 10 16.0934 0 0
12:52 pm 12:52 Cloudy 71 21.7 58 14.4 63 63 VRB 7 11 30.15 1021 10 16.0934 0 0
1:52 pm 13:52 Cloudy 71 21.7 61 16.1 71 71 SSW 6 9 30.14 1021 10 16.0934 0 0
2:52 pm 14:52 Cloudy 71 21.7 61 16.1 71 71 S 3 6 30.14 1021 10 16.0934 0 0
3:52 pm 15:52 Cloudy 71 21.7 61 16.1 71 71 SW 5 7 30.12 1020 10 16.0934 0 0
4:10 pm 16:10 Cloudy with Light Rain 72 22 61 16 69 69 SW 5 7 30.12 1020 10 16.0934 0 0
4:52 pm 16:52 Cloudy 71 21.7 61 16.1 71 71 SSW 5 7 30.11 1020 10 16.0934 0 0.0254
5:08 pm 17:08 Cloudy with Light Rain 72 22 63 17 73 73 SW 6 9 30.12 1020 10 16.0934 0 0
5:52 pm 17:52 Cloudy 71 21.7 63 17.2 76 76 SW 6 9 30.12 1020 10 16.0934 0 0.0254
5:56 pm 17:56 Cloudy with Light Rain 70 21 63 17 78 78 SW 7 11 30.12 1020 10 16.0934 0 0
6:52 pm 18:52 Cloudy with Light Rain 70 21.1 63 17.2 79 79 SSW 6 9 30.11 1020 10 16.0934 0 0.0254
7:52 pm 19:52 Mostly Cloudy 69 20.6 64 17.8 84 84 SSW 6 9 30.11 1020 10 16.0934 0.01 0.254
8:52 pm 20:52 Cloudy 69 20.6 65 18.3 87 87 SSW 6 9 30.11 1020 10 16.0934 0 0
9:01 pm 21:01 Mostly Cloudy 69 20.6 65 18.3 87 87 SSW 6 9 30.12 1020 10 16.0934 0 0
9:44 pm 21:44 Cloudy 70 21 64 18 83 83 S 6 9 30.12 1020 10 16.0934 0 0
9:46 pm 21:46 Cloudy 70 21 64 18 83 83 SSW 6 9 30.12 1020 10 16.0934 0 0
9:52 pm 21:52 Cloudy 69 20.6 65 18.3 87 87 SSW 6 9 30.11 1020 10 16.0934 0 0
10:03 pm 22:03 Cloudy 70 21 64 18 83 83 SSW 5 7 30.12 1020 7 11.26538 0 0
10:50 pm 22:50 Cloudy 70 21 66 19 88 88 SW 6 9 30.12 1020 10 16.0934 0 0
10:52 pm 22:52 Cloudy 70 21.1 66 18.9 87 87 SW 6 9 30.12 1020 10 16.0934 0 0
11:08 pm 23:08 Cloudy 69 20.6 65 18.3 87 87 SW 5 7 30.12 1020 10 16.0934 0 0
11:52 pm 23:52 Mostly Cloudy 69 20.6 65 18.3 87 87 SW 3 6 30.11 1020 10 16.0934 0 0

Powered by AerisWeather